Hatteras, NC

10:53 PM EST on December 14, 2017 (GMT -0500)
Mitchell

Weather History for KHSE - September, 2013

Change the Weather History Date:

Sunday, September 22, 2013

  Actual Average Record
Temperature  
Mean Temperature 74 °F 73 °F  
Max Temperature 78 °F 79 °F 88 °F (1931)
Min Temperature 69 °F 68 °F 54 °F (1976)
Degree Days  
Heating Degree Days 0 0  
Month to date heating degree days 0 0  
Since 1 July heating degree days 0 0  
Cooling Degree Days 9 8  
Month to date cooling degree days 256 229  
Year to date cooling degree days 1800 1535  
Growing Degree Days 24 (Base 50)    
Moisture  
Dew Point 70 °F    
Average Humidity 87    
Maximum Humidity 100    
Minimum Humidity 73    
Precipitation  
Precipitation 2.21 in 0.18 in 5.79 in (1952)
Month to date precipitation 4.83 4.74  
Year to date precipitation 36.03 41.93  
Snow  
Snow 0.00 in - - ()
Month to date snowfall 0.0  
Since 1 July snowfall 0.0  
Snow Depth 0.00 in    
Sea Level Pressure  
Sea Level Pressure 29.74 in    
Wind  
Wind Speed 9 mph (East)    
Max Wind Speed 20 mph    
Max Gust Speed 31 mph    
Visibility 5 miles    
Events Rain    
T = Trace of Precipitation, MM = Missing Value Source: NWS Daily Summary

Daily Weather History Graph

Daily Weather History Graph

Search for Another Location

Airport or City:

Trip Planner

Search our weather history database for the weather conditions in past years. The results will help you decide how hot, cold, wet, or windy it might be!

Date:

Astronomy

Sep. 22, 2013 Rise Set
Actual Time 6:50 AM EDT 6:58 PM EDT
Civil Twilight 6:25 AM EDT 7:24 PM EDT
Nautical Twilight 5:55 AM EDT 7:53 PM EDT
Astronomical Twilight 5:25 AM EDT 8:23 PM EDT
Moon 8:56 PM EDT (9/22) 9:59 AM EDT (9/22)
Length of Visible Light 12h 58m
Length of Day
12h 08m
Waning Gibbous, 89% of the Moon is Illuminated
Sep 22
Waning Gibbous
Sep 26
Last Quarter
Oct 4
New
Oct 11
First Quarter
Oct 18
Full

Hourly Weather History & Observations

Time (EDT) Temp. Dew Point Humidity Pressure Visibility Wind Dir Wind Speed Gust Speed Precip Events Conditions
12:51 AM 78.1 °F 71.1 °F 79% 29.77 in 10.0 mi SW 6.9 mph - N/A   Overcast
1:51 AM 77.0 °F 70.0 °F 79% 29.76 in 10.0 mi SW 8.1 mph - N/A   Partly Cloudy
2:51 AM 77.0 °F 71.1 °F 82% 29.75 in 10.0 mi SW 5.8 mph - 0.00 in Rain Light Rain
3:51 AM 75.0 °F 71.1 °F 87% 29.74 in 10.0 mi West 5.8 mph - 0.00 in Rain Light Rain
4:21 AM 71.6 °F 68.0 °F 88% 29.74 in 7.0 mi South 6.9 mph - 0.03 in Rain Light Rain
4:35 AM 71.6 °F 69.8 °F 94% 29.74 in 1.8 mi Calm Calm - 0.09 in Rain Heavy Rain
4:41 AM 71.6 °F 69.8 °F 94% 29.74 in 2.5 mi SSW 4.6 mph - 0.10 in Rain Light Rain
4:48 AM 71.6 °F 69.8 °F 94% 29.74 in 4.0 mi SSW 4.6 mph - 0.11 in Rain Rain
4:51 AM 72.0 °F 70.0 °F 93% 29.74 in 1.8 mi SW 6.9 mph - 0.12 in Rain Heavy Rain
4:54 AM 71.6 °F 69.8 °F 94% 29.74 in 1.0 mi WSW 9.2 mph - 0.08 in Rain Heavy Rain
5:06 AM 71.6 °F 69.8 °F 94% 29.73 in 1.8 mi SW 10.4 mph - 0.28 in Rain Light Rain
5:08 AM 71.6 °F 69.8 °F 94% 29.73 in 3.0 mi WSW 6.9 mph - 0.29 in Rain Light Rain
5:13 AM 73.4 °F 69.8 °F 88% 29.73 in 2.5 mi West 6.9 mph - 0.30 in Rain Heavy Rain
5:24 AM 71.6 °F 69.8 °F 94% 29.74 in 3.0 mi Calm Calm - 0.36 in Rain Light Rain
5:30 AM 71.6 °F 69.8 °F 94% 29.74 in 1.8 mi SSW 3.5 mph - 0.41 in Rain Heavy Rain
5:37 AM 71.6 °F 71.6 °F 100% 29.74 in 3.0 mi Calm Calm - 0.44 in Rain Light Rain
5:51 AM 72.0 °F 71.1 °F 97% 29.74 in 7.0 mi Calm Calm - 0.44 in Rain Light Rain
6:04 AM 73.4 °F 71.6 °F 94% 29.75 in 3.0 mi Variable 6.9 mph - 0.03 in Rain Heavy Rain
6:06 AM 73.4 °F 71.6 °F 94% 29.75 in 2.0 mi WSW 12.7 mph 18.4 mph 0.04 in Rain Heavy Rain
6:10 AM 71.6 °F 69.8 °F 94% 29.75 in 1.2 mi WSW 8.1 mph 18.4 mph 0.14 in Rain Heavy Rain
6:18 AM 69.8 °F 69.8 °F 100% 29.75 in 1.2 mi West 6.9 mph - 0.24 in Rain Heavy Rain
6:24 AM 69.8 °F 68.0 °F 94% 29.75 in 2.0 mi NW 3.5 mph - 0.29 in Rain Light Rain
6:33 AM 69.8 °F 68.0 °F 94% 29.75 in 8.0 mi NW 3.5 mph - 0.29 in Rain Light Rain
6:51 AM 71.1 °F 69.1 °F 93% 29.75 in 5.0 mi Calm Calm - 0.31 in Rain Light Rain
7:05 AM 71.6 °F 69.8 °F 94% 29.75 in 6.0 mi Calm Calm - 0.01 in Rain Light Rain
7:25 AM 71.6 °F 69.8 °F 94% 29.76 in 5.0 mi West 3.5 mph - 0.02 in Rain Light Rain
7:51 AM 71.1 °F 70.0 °F 96% 29.76 in 6.0 mi Calm Calm - 0.03 in Rain Light Rain
8:31 AM 71.6 °F 69.8 °F 94% 29.77 in 2.5 mi Calm Calm - 0.07 in Rain Rain
8:51 AM 71.1 °F 70.0 °F 96% 29.76 in 2.5 mi NNE 3.5 mph - 0.13 in Rain Rain
9:00 AM 71.6 °F 69.8 °F 94% 29.76 in 4.0 mi Variable 3.5 mph - 0.01 in Rain Rain
9:09 AM 71.6 °F 69.8 °F 94% 29.77 in 4.0 mi Calm Calm - 0.02 in Rain Light Rain
9:22 AM 71.6 °F 69.8 °F 94% 29.78 in 2.5 mi Calm Calm - 0.04 in Rain Rain
9:43 AM 69.8 °F 69.8 °F 100% 29.79 in 2.0 mi Calm Calm - 0.13 in Rain Rain
9:51 AM 70.0 °F 69.1 °F 97% 29.78 in 2.0 mi Calm Calm - 0.15 in Rain Rain
10:27 AM 71.6 °F 69.8 °F 94% 29.78 in 4.0 mi ENE 4.6 mph - 0.12 in Rain Light Rain
10:51 AM 71.1 °F 70.0 °F 96% 29.78 in 8.0 mi East 6.9 mph - 0.14 in Rain Light Rain
11:51 AM 71.1 °F 70.0 °F 96% 29.75 in 10.0 mi East 9.2 mph 18.4 mph 0.03 in   Overcast
12:22 PM 71.6 °F 69.8 °F 94% 29.76 in 4.0 mi SE 13.8 mph - 0.01 in Rain Light Rain
12:41 PM 71.6 °F 69.8 °F 94% 29.76 in 10.0 mi ESE 15.0 mph 24.2 mph 0.01 in   Overcast
12:46 PM 71.6 °F 69.8 °F 94% 29.75 in 2.0 mi ESE 15.0 mph 21.9 mph 0.03 in Rain Heavy Rain
12:49 PM 71.6 °F 69.8 °F 94% 29.75 in 1.2 mi ESE 12.7 mph - 0.07 in Rain Heavy Rain
12:51 PM 71.1 °F 70.0 °F 96% 29.75 in 1.2 mi ESE 12.7 mph - 0.09 in Rain Heavy Rain
12:56 PM 71.6 °F 69.8 °F 94% 29.75 in 2.0 mi ESE 11.5 mph - 0.01 in Rain Light Rain
1:03 PM 71.6 °F 69.8 °F 94% 29.75 in 5.0 mi ESE 13.8 mph 20.7 mph 0.01 in Rain Light Rain
1:21 PM 71.6 °F 69.8 °F 94% 29.74 in 5.0 mi East 11.5 mph - 0.03 in Rain Light Rain
1:27 PM 71.6 °F 69.8 °F 94% 29.74 in 2.5 mi East 10.4 mph - 0.03 in Rain Light Rain
1:30 PM 71.6 °F 69.8 °F 94% 29.74 in 1.8 mi East 9.2 mph - 0.04 in Rain Rain
1:32 PM 71.6 °F 69.8 °F 94% 29.74 in 1.2 mi East 9.2 mph - 0.04 in Rain Rain
1:47 PM 71.6 °F 69.8 °F 94% 29.73 in 2.0 mi East 6.9 mph 16.1 mph 0.14 in Rain Light Rain
1:51 PM 71.1 °F 70.0 °F 96% 29.74 in 3.0 mi SE 9.2 mph 19.6 mph 0.14 in Rain Light Rain
2:07 PM 71.6 °F 69.8 °F 94% 29.73 in 10.0 mi ESE 8.1 mph - 0.00 in   Overcast
2:46 PM 71.6 °F 69.8 °F 94% 29.71 in 8.0 mi East 10.4 mph 19.6 mph 0.00 in Rain Light Rain
2:51 PM 72.0 °F 70.0 °F 93% 29.70 in 8.0 mi East 11.5 mph 19.6 mph 0.00 in Rain Light Rain
3:04 PM 71.6 °F 69.8 °F 94% 29.70 in 2.5 mi ENE 9.2 mph - 0.01 in Rain Heavy Rain
3:06 PM 71.6 °F 69.8 °F 94% 29.70 in 1.2 mi ENE 8.1 mph - 0.03 in Rain Heavy Rain
3:32 PM 71.6 °F 71.6 °F 100% 29.68 in 1.5 mi East 9.2 mph - 0.39 in Rain Rain
3:48 PM 73.4 °F 73.4 °F 100% 29.69 in 2.5 mi SW 12.7 mph 20.7 mph 0.45 in Rain Light Rain
3:51 PM 73.9 °F 72.0 °F 93% 29.69 in 5.0 mi SW 12.7 mph 23.0 mph 0.45 in Rain Light Rain
4:51 PM 75.9 °F 72.0 °F 87% 29.69 in 8.0 mi South 9.2 mph - 0.01 in   Overcast
5:13 PM 73.4 °F 71.6 °F 94% 29.69 in 1.8 mi WSW 10.4 mph 20.7 mph 0.00 in Rain Heavy Rain
5:20 PM 73.4 °F 71.6 °F 94% 29.69 in 1.0 mi Variable 6.9 mph 16.1 mph 0.08 in Rain Rain
5:24 PM 73.4 °F 71.6 °F 94% 29.69 in 2.5 mi Variable 5.8 mph - 0.08 in Rain Light Rain
5:26 PM 73.4 °F 71.6 °F 94% 29.69 in 4.0 mi NNE 5.8 mph - 0.09 in Rain Light Rain
5:36 PM 73.4 °F 71.6 °F 94% 29.69 in 4.0 mi Variable 3.5 mph - 0.09 in Rain Light Rain
5:45 PM 73.4 °F 71.6 °F 94% 29.70 in 2.5 mi NNE 6.9 mph - 0.10 in Rain Rain
5:46 PM 73.0 °F 71.1 °F 93% 29.70 in 2.0 mi NNE 6.9 mph - 0.11 in Rain Heavy Rain
5:52 PM 73.4 °F 71.6 °F 94% 29.70 in 1.5 mi NNE 5.8 mph - 0.04 in Rain Rain
5:58 PM 73.4 °F 71.6 °F 94% 29.70 in 3.0 mi Variable 6.9 mph - 0.06 in Rain Light Rain
6:07 PM 73.4 °F 71.6 °F 94% 29.70 in 7.0 mi NNE 6.9 mph - 0.06 in Rain Light Rain
6:31 PM 71.6 °F 69.8 °F 94% 29.71 in 10.0 mi NNE 12.7 mph 19.6 mph 0.06 in   Overcast
6:38 PM 71.6 °F 69.8 °F 94% 29.71 in 10.0 mi NNE 11.5 mph 21.9 mph 0.06 in   Overcast
6:51 PM 70.0 °F 69.1 °F 97% 29.71 in 10.0 mi NNE 13.8 mph 24.2 mph 0.06 in   Overcast
7:51 PM 71.1 °F 69.1 °F 93% 29.74 in 10.0 mi NNE 11.5 mph 26.5 mph N/A   Overcast
8:00 PM 71.6 °F 69.8 °F 94% 29.74 in 10.0 mi NNE 11.5 mph 23.0 mph N/A   Overcast
8:17 PM 71.6 °F 69.8 °F 94% 29.74 in 10.0 mi NNE 10.4 mph 20.7 mph N/A   Overcast
8:51 PM 70.0 °F 68.0 °F 93% 29.76 in 10.0 mi NE 15.0 mph 27.6 mph N/A   Overcast
9:51 PM 70.0 °F 66.0 °F 87% 29.78 in 10.0 mi NNE 13.8 mph 28.8 mph N/A   Overcast
10:21 PM 69.8 °F 62.6 °F 78% 29.79 in 10.0 mi NNE 16.1 mph 27.6 mph N/A   Overcast
10:51 PM 70.0 °F 61.0 °F 73% 29.80 in 10.0 mi NNE 15.0 mph 27.6 mph N/A   Overcast
11:06 PM 71.6 °F 60.8 °F 69% 29.80 in 10.0 mi NE 13.8 mph 26.5 mph N/A   Overcast
11:51 PM 71.1 °F 62.1 °F 73% 29.80 in 10.0 mi NNE 13.8 mph 23.0 mph N/A   Overcast